GFSNE_sfc_temp_231.txt.gz
Temp
52 51 51 52 52 52 52 52 47 43 46 51 49 53 56 60 62 62 63 63 63 62 61 61 60 60 59 59 58 58 58 57 57 57 58 58 58 59
52 50 50 51 51 51 51 53 53 49 45 47 47 50 54 55 58 58 58 59 59 58 58 57 57 56 56 56 56 56 56 57 57 57 56 57 57 57
50 50 50 51 51 52 52 50 50 52 45 44 45 47 48 50 50 52 53 53 53 56 55 54 54 54 54 54 54 54 54 54 54 54 54 54 55 55
49 49 49 51 50 50 51 50 52 52 46 42 42 43 45 47 47 47 48 50 50 53 53 52 51 51 52 52 53 53 53 53 52 52 53 53 54 54
49 49 49 49 48 49 50 50 52 52 47 43 40 40 40 44 40 43 46 47 48 51 51 50 50 50 50 51 52 51 51 52 52 52 51 52 53 54
49 49 49 48 49 49 50 52 50 45 44 40 38 37 37 39 39 37 34 36 35 40 44 46 47 49 50 50 50 50 50 51 51 51 51 51 51 52
47 48 49 49 51 51 50 50 46 43 41 39 36 35 33 34 34 36 33 33 32 35 34 36 38 39 42 49 49 49 49 49 51 50 50 50 50 51
45 46 48 50 52 54 55 52 48 42 40 37 35 34 32 32 32 33 33 32 30 34 33 32 36 36 38 47 49 49 48 49 49 49 49 49 49 50
44 46 47 50 52 54 54 53 51 49 46 41 34 32 32 32 32 32 31 31 30 32 37 33 39 37 40 44 47 47 47 48 48 48 48 48 48 49
47 47 48 49 51 47 42 39 39 40 40 38 35 33 33 32 32 32 31 31 33 35 38 32 38 37 41 42 44 45 45 46 46 48 49 49 48 48
47 48 48 47 48 46 40 38 38 39 44 44 42 42 41 39 37 36 33 33 31 33 39 36 36 38 40 40 42 41 43 44 45 46 47 47 47 48
44 46 48 46 47 46 41 38 35 36 36 36 36 39 40 40 40 38 36 34 36 36 40 38 39 40 38 42 42 43 44 43 43 43 45 45 45 47
39 40 42 44 43 42 39 35 34 36 36 33 33 34 36 38 39 40 41 42 39 37 40 41 39 40 40 39 41 42 43 44 45 44 44 44 43 44
39 40 42 43 43 43 41 42 41 39 36 35 35 35 35 35 36 37 38 39 40 39 40 43 39 41 40 38 37 40 42 44 45 44 43 43 43 43
43 44 45 45 44 43 43 42 41 38 37 35 35 34 35 38 39 39 40 40 39 40 40 42 41 40 40 37 35 35 39 42 42 42 44 43 43 42
41 41 41 40 40 39 38 38 38 37 36 35 35 37 39 39 38 40 39 39 37 37 40 41 42 41 38 38 39 37 39 36 40 41 42 44 45 43
39 39 38 37 37 36 36 37 37 38 37 38 38 38 38 39 38 40 39 38 36 35 36 39 41 41 40 40 37 38 38 38 40 40 40 41 44 41
38 36 35 36 35 35 35 36 37 37 38 38 38 39 38 38 37 38 39 38 36 36 36 37 39 39 40 38 37 33 34 34 40 41 41 38 39 39
36 35 35 35 35 35 36 36 35 37 39 38 38 38 39 38 38 37 38 37 36 36 37 39 39 38 33 30 36 37 32 36 40 40 41 39 36 35
36 35 35 35 36 36 37 37 37 37 38 38 38 38 39 38 37 37 37 36 36 36 36 37 37 36 33 31 32 34 37 36 37 38 38 37 37 39
35 35 36 36 36 37 37 37 37 37 38 38 38 38 38 38 37 38 37 36 36 36 34 34 36 37 39 40 35 36 39 38 38 35 35 34 34 34
36 36 36 37 36 36 37 37 37 38 38 38 38 38 38 38 37 37 37 35 35 35 35 37 39 39 38 36 34 35 37 39 39 36 38 37 33 30
36 36 36 37 37 37 38 37 38 37 38 38 38 38 38 37 38 38 38 38 37 37 37 36 37 38 36 36 36 36 36 37 34 34 34 37 37 37

GFSNE_sfc_temp_234.txt.gz
Temp
57 57 57 58 59 59 58 56 52 45 50 58 55 55 54 56 58 63 67 64 65 64 64 64 64 65 64 64 62 61 60 60 59 59 58 58 58 58
57 57 57 58 58 58 55 56 55 51 47 57 57 52 51 54 57 62 63 61 63 63 61 60 61 61 60 60 59 58 58 58 58 56 56 56 56 57
56 55 55 57 57 57 56 56 50 51 47 52 51 49 51 49 52 55 56 56 57 59 58 57 57 57 57 56 56 55 55 55 55 54 54 55 55 56
53 54 54 56 55 55 55 55 55 54 49 49 50 44 45 47 49 49 50 52 52 55 55 54 53 53 53 52 52 53 53 53 53 53 53 53 54 55
52 53 54 54 53 54 54 51 53 55 54 50 41 42 42 42 44 46 47 46 48 52 53 52 52 51 51 51 51 52 52 52 52 52 52 52 52 53
51 52 52 51 51 51 50 50 53 53 52 44 40 38 38 39 40 38 34 37 38 43 48 49 50 51 50 50 50 50 51 51 51 51 51 51 52 52
49 50 51 51 53 53 50 49 51 49 43 41 37 35 33 34 33 33 33 32 32 36 36 38 39 41 43 47 48 49 50 50 50 50 50 50 50 51
48 50 51 51 51 53 53 54 53 44 41 39 37 34 32 32 33 33 33 33 31 33 34 33 37 36 41 43 47 48 49 49 49 49 49 49 49 50
46 46 47 51 52 53 54 55 52 50 47 41 34 33 32 32 32 32 32 31 31 33 35 33 39 38 42 45 46 47 48 48 49 49 49 49 49 50
45 46 46 48 51 43 40 38 37 38 38 36 34 32 32 32 32 33 32 32 33 34 38 33 40 40 44 44 45 46 47 47 47 48 48 47 47 49
47 49 49 48 47 45 39 37 36 37 43 43 42 42 41 39 37 36 34 34 32 34 37 36 38 40 43 43 44 45 45 45 45 46 46 46 46 48
45 47 48 47 47 45 40 38 35 36 37 37 37 39 40 41 42 39 38 36 35 35 41 38 40 44 39 44 45 47 49 46 46 45 45 45 45 47
38 39 42 44 42 41 38 35 34 35 36 35 36 37 38 40 43 46 47 46 44 41 43 46 45 45 44 42 45 46 48 48 49 50 47 46 46 45
38 39 41 43 43 42 41 42 42 42 42 41 41 40 41 42 43 45 45 45 46 44 46 48 44 46 44 42 40 44 46 48 48 47 49 49 48 46
42 44 44 44 44 43 44 44 43 42 41 39 39 40 42 43 45 44 44 44 45 45 46 47 46 45 45 41 40 42 43 46 47 46 48 48 45 44
43 43 43 43 43 42 42 43 44 44 43 41 41 42 44 44 43 44 42 42 41 40 44 46 46 46 43 43 43 41 43 40 45 46 46 47 45 42
46 46 45 44 43 43 43 44 44 45 44 44 44 43 42 42 42 44 43 42 39 37 37 40 43 42 40 41 37 38 38 40 45 45 44 42 43 39
45 43 43 43 42 42 42 42 43 43 44 44 44 44 42 42 42 43 44 42 40 40 40 41 42 42 42 40 39 35 37 39 44 45 43 39 38 38
43 43 42 41 41 42 42 42 41 43 44 44 43 43 43 42 42 42 42 41 39 40 40 42 41 40 36 31 37 38 35 37 38 41 40 37 35 35
43 42 41 42 42 42 42 42 42 43 43 43 43 43 43 42 41 40 41 40 39 40 39 41 40 38 33 31 32 37 38 36 35 35 35 37 38 39
42 42 42 42 42 42 42 42 42 42 42 42 42 42 42 42 40 40 39 38 39 39 37 37 39 40 44 43 39 38 40 37 35 34 35 35 34 34
42 42 42 43 42 42 42 42 42 43 42 42 42 42 43 42 40 40 40 39 39 39 39 41 43 44 42 39 37 36 34 35 36 38 38 36 33 30
42 42 42 42 43 43 43 43 43 42 42 42 42 42 42 41 42 42 41 41 41 40 40 40 41 42 41 40 38 34 34 35 37 36 36 37 38 38

GFSNE_sfc_temp_237.txt.gz
Temp
56 56 56 57 58 59 58 55 50 44 47 54 55 60 57 57 57 59 59 61 63 65 64 64 66 67 68 67 65 64 64 64 63 61 61 59 58 58
55 56 56 57 57 57 56 56 54 49 45 54 55 55 53 55 56 56 60 60 62 65 62 63 64 65 65 64 63 61 61 61 61 60 58 57 56 57
53 53 54 57 56 56 56 54 50 50 45 50 53 54 51 49 51 53 58 60 60 64 62 60 60 60 60 59 59 58 59 59 58 57 56 55 55 56
50 51 51 56 55 55 55 53 52 53 49 46 49 48 47 47 49 48 51 54 55 59 58 57 57 57 56 55 55 55 54 54 55 55 54 54 54 55
50 51 51 52 54 54 55 53 53 54 52 49 48 43 42 43 41 43 46 49 51 54 54 54 54 53 53 52 52 52 52 52 52 52 52 53 53 53
50 50 50 52 54 54 54 53 53 49 48 48 41 38 38 39 39 36 35 37 40 46 50 51 51 52 52 51 51 50 50 51 51 51 51 51 51 52
49 50 50 51 54 54 52 50 48 46 46 43 37 36 34 33 32 32 32 33 33 38 38 39 41 43 45 48 49 50 50 50 50 50 50 50 50 51
46 48 51 51 52 53 54 54 51 46 45 40 37 34 32 32 32 32 33 35 32 34 35 33 38 38 41 44 48 48 48 48 48 48 49 50 50 51
47 48 48 51 50 49 51 51 52 54 49 43 35 33 32 32 32 32 32 32 31 32 36 32 36 36 40 43 46 47 48 48 48 48 48 48 48 49
45 45 45 47 50 42 39 37 36 36 38 37 34 32 32 32 32 32 32 32 32 32 34 31 34 34 38 41 46 46 46 46 47 47 47 47 47 49
46 46 47 47 47 44 38 36 36 37 42 42 42 41 41 39 37 35 32 32 31 32 35 34 35 35 38 39 43 46 46 46 46 46 47 47 47 48
41 46 48 45 45 42 36 34 31 32 34 34 35 38 39 40 41 37 35 32 32 32 37 35 36 39 35 41 43 45 45 48 47 47 48 48 48 44
36 37 39 42 42 41 38 33 33 34 35 33 33 35 37 37 38 41 43 40 39 37 42 42 40 40 39 38 41 42 42 43 44 46 49 49 48 46
37 39 40 43 43 43 41 42 42 41 39 38 38 38 39 40 42 43 43 44 44 42 43 43 40 40 38 37 35 39 41 42 42 42 43 48 47 44
41 44 45 46 46 45 46 45 45 42 41 39 38 39 41 42 43 42 43 43 43 44 46 44 41 41 40 37 36 37 38 40 41 41 42 42 41 39
46 45 46 46 46 45 44 44 44 43 41 40 40 41 43 42 41 42 40 40 38 38 41 42 41 40 39 38 37 35 36 35 39 40 43 43 40 40
46 45 44 43 42 42 42 43 43 43 42 42 41 40 40 40 40 41 40 39 37 36 36 38 40 39 38 36 33 35 34 35 39 40 40 39 40 38
44 41 40 41 40 40 40 40 42 42 42 42 41 41 40 40 40 40 40 39 37 37 37 38 38 37 36 36 39 34 35 35 37 39 38 35 35 36
41 41 40 40 40 41 41 40 40 41 43 42 41 41 41 41 40 39 39 38 37 38 38 39 37 34 31 29 35 39 33 34 34 34 35 34 33 34
41 40 40 40 40 40 40 40 41 41 41 41 41 41 40 39 38 37 38 37 36 36 36 36 35 34 32 30 32 32 37 33 32 31 32 35 37 40
40 40 41 41 41 41 41 41 41 40 40 40 40 39 40 39 37 37 37 39 37 35 33 33 35 42 38 38 33 32 35 36 36 34 33 32 32 32
41 40 41 41 41 41 41 41 40 40 40 40 40 40 40 39 38 37 37 36 35 35 35 37 38 38 37 34 32 32 33 35 38 38 38 37 32 29
41 41 40 40 41 41 41 41 40 40 40 40 40 40 40 38 39 39 38 38 37 37 37 35 38 38 37 34 34 33 34 34 35 35 35 38 38 39

GFSNE_sfc_temp_243.txt.gz
Temp
45 43 42 44 44 45 44 44 45 37 37 39 41 45 45 47 49 50 50 54 57 58 59 61 61 63 64 67 69 69 70 71 70 69 71 69 69 66
46 47 46 45 45 45 43 43 45 46 39 40 40 42 45 48 49 48 48 53 55 56 57 58 60 62 63 66 67 68 68 69 69 69 68 67 65 64
47 47 46 46 45 44 42 43 42 42 42 38 40 42 42 43 44 43 45 45 47 54 57 57 58 60 62 64 65 65 66 67 66 65 64 63 61 59
45 46 45 49 47 46 46 44 42 41 39 36 38 39 40 42 44 43 42 44 43 49 57 58 59 60 61 62 62 63 63 62 62 61 60 59 59 59
44 44 45 45 44 41 44 44 44 47 40 38 37 39 36 36 38 40 40 39 43 48 59 60 60 61 61 61 60 59 59 59 58 58 58 58 58 57
45 45 43 44 43 43 45 44 44 41 38 39 40 39 39 35 34 36 35 37 35 42 47 55 56 56 56 55 55 54 54 55 55 55 54 55 55 55
44 44 43 45 50 48 44 41 41 42 40 40 39 37 35 30 33 34 33 33 33 34 39 42 44 46 48 51 51 51 51 51 52 52 51 52 52 53
40 40 45 48 48 52 52 52 47 39 36 36 35 32 33 31 33 33 33 33 31 34 34 35 42 41 43 46 50 50 50 50 49 49 50 49 49 51
41 42 45 49 49 44 48 45 42 45 46 44 41 34 32 33 33 32 32 31 30 32 33 32 37 38 42 45 49 49 48 48 47 47 48 48 49 51
44 44 45 45 46 40 38 37 37 37 36 37 35 33 33 32 33 33 32 32 32 32 33 31 34 33 37 41 45 46 47 47 47 47 47 47 46 47
40 39 39 39 42 41 35 35 35 37 43 42 41 42 42 40 37 35 32 33 31 31 32 32 32 33 34 36 41 45 45 45 46 46 47 46 45 45
38 40 42 40 42 40 33 33 31 32 33 33 33 37 40 40 40 36 35 32 32 31 34 33 33 33 32 35 36 38 40 46 47 46 46 45 45 42
38 38 40 44 43 42 40 35 34 34 35 34 34 34 35 35 35 37 37 35 33 32 36 35 33 33 32 32 36 37 38 39 37 39 45 45 44 43
37 39 42 45 44 43 41 42 41 38 35 34 33 32 33 33 34 35 37 38 39 35 37 39 35 34 32 31 31 34 33 35 36 35 34 41 42 42
43 45 46 45 45 45 45 44 42 37 36 34 34 34 34 36 37 37 37 38 37 37 38 36 34 31 29 27 27 27 29 32 31 32 36 36 35 38
41 41 43 43 44 42 38 38 38 37 34 33 33 33 34 34 34 34 33 34 34 32 36 37 36 35 31 29 29 26 27 28 32 32 37 36 35 37
38 37 36 35 34 34 35 35 35 34 33 31 31 31 32 33 31 31 31 31 30 29 30 32 33 33 33 31 28 30 28 32 34 34 34 34 36 35
36 33 32 32 31 31 31 32 32 33 31 33 32 31 32 31 32 32 32 30 28 27 26 28 29 30 30 34 34 28 32 31 33 34 34 33 33 36
33 32 31 31 31 31 31 31 30 30 32 31 31 31 32 33 31 31 30 30 29 28 27 28 28 27 25 25 31 37 31 32 32 31 32 32 32 34
33 32 31 32 32 32 32 32 31 31 31 30 30 29 29 30 30 29 29 28 28 29 29 29 29 28 22 26 30 32 37 33 32 32 32 33 32 39
32 32 32 32 32 33 33 33 33 34 32 32 32 32 33 33 32 31 32 36 33 30 28 30 32 38 33 34 31 31 33 37 37 34 34 30 31 32
32 31 32 32 33 32 32 32 32 31 32 32 32 33 33 33 32 31 32 31 30 30 29 30 32 33 31 29 26 27 29 34 36 38 39 37 32 29
32 32 31 31 31 31 31 31 31 31 31 32 32 32 32 32 32 32 32 32 32 32 31 31 31 31 32 30 30 29 30 31 32 33 34 39 39 40

GFSNE_sfc_temp_246.txt.gz
Temp
44 42 41 42 42 43 43 44 41 34 34 38 39 43 43 45 48 48 48 53 57 58 58 59 59 61 62 64 65 66 67 69 70 70 71 71 72 72
47 45 43 42 43 42 41 41 42 40 37 39 40 41 43 47 48 47 46 53 53 55 56 56 57 59 60 62 63 64 65 67 68 69 70 70 71 70
45 45 44 45 42 41 41 41 39 39 37 37 38 40 40 41 43 43 44 42 43 50 52 54 55 56 58 60 61 62 63 65 67 68 69 69 69 68
43 43 44 48 44 42 40 40 39 39 37 35 37 37 39 39 40 39 42 44 40 46 50 53 53 55 56 58 58 60 61 63 65 67 68 69 66 65
45 44 44 43 41 40 42 40 40 44 38 37 36 37 37 36 36 37 37 36 41 45 46 50 55 58 59 58 58 59 59 61 62 64 63 63 63 62
45 44 45 45 44 40 40 40 41 40 42 38 37 36 35 35 35 32 30 33 34 39 41 47 51 58 59 59 59 59 58 60 60 59 58 59 59 59
44 45 45 44 48 45 43 40 39 38 38 36 35 34 34 34 30 26 27 33 34 35 34 39 43 45 49 54 55 54 55 56 56 56 55 55 55 55
41 43 42 46 47 51 52 51 44 38 36 37 37 35 32 30 32 32 32 33 32 35 32 34 39 42 45 48 52 52 52 52 52 52 51 51 51 52
43 43 41 46 46 42 46 44 45 45 47 41 37 34 33 33 33 32 32 32 31 32 33 32 34 38 43 46 49 50 50 49 49 49 49 49 50 50
41 42 41 43 43 39 38 37 38 37 35 37 35 34 33 33 34 33 33 32 32 32 33 31 33 32 38 43 47 48 48 47 47 48 48 47 48 49
38 38 38 38 42 40 35 34 34 34 42 43 41 41 41 40 37 35 32 32 31 31 33 33 32 32 33 33 41 46 46 47 47 47 46 45 45 45
39 41 43 40 42 40 33 33 32 32 33 33 34 35 38 40 40 36 35 32 32 31 34 33 33 32 31 33 34 38 39 45 46 46 45 45 44 40
38 39 42 45 44 43 40 35 34 35 36 34 34 34 34 34 35 36 36 35 33 32 37 35 33 33 32 32 33 33 35 36 38 40 44 44 44 41
37 39 42 46 45 44 41 41 40 37 35 34 33 32 32 33 33 34 35 35 36 35 36 37 33 32 31 30 30 33 34 35 36 36 37 41 42 42
42 44 44 43 43 42 43 42 40 35 34 33 31 31 33 35 36 36 37 37 37 37 38 36 34 33 32 29 29 29 32 32 33 33 36 35 33 37
38 39 40 40 41 39 36 35 36 35 31 30 30 31 34 33 32 32 32 33 32 31 35 37 34 34 30 29 30 29 29 29 32 30 32 32 32 33
36 35 33 33 32 32 32 32 33 31 30 30 30 31 32 33 31 31 32 32 30 29 30 32 32 33 30 28 28 31 31 32 33 34 34 34 36 36
34 31 30 30 29 29 29 29 30 31 29 30 29 30 30 30 30 31 30 29 29 29 29 30 30 29 30 34 35 31 31 31 32 33 34 32 32 35
31 30 30 30 29 30 29 29 28 28 29 28 28 28 30 30 30 29 30 29 29 28 29 29 28 28 27 27 31 37 31 32 32 32 32 32 31 33
31 30 30 31 30 30 31 31 30 31 31 31 30 29 29 30 29 29 29 28 28 28 29 30 28 28 26 28 29 32 37 33 32 31 31 34 34 39
30 30 30 30 30 31 32 32 32 33 32 31 30 30 30 31 29 30 30 35 32 31 31 31 32 37 31 31 31 31 33 37 37 34 33 31 27 29
29 29 29 30 30 30 31 31 30 30 30 30 30 30 31 31 30 31 31 30 29 29 30 29 30 31 30 28 26 26 30 33 37 39 39 38 33 29
29 29 29 29 30 31 31 31 31 31 31 31 31 31 32 32 32 32 32 33 33 32 32 31 31 32 30 30 30 30 29 29 29 32 34 38 39 40